Location: Gro�sch�nbrunn
(49.5760°N, 11.8868°E)
Time: 16:57:06
(UTC+00:00)

SPOT 5 - Pass Details

Date: 18 September 2020
Orbit: 623 x 815 km, 98.3° (Epoch: 31 October)

Event Time Altitude Azimuth Distance (km) Brightness Sun altitude
Exits shadow 20:40:10 53° 4° (N) 968 3.6 -30.1°
Drops below altitude 10° 20:44:16 10° 349° (NNW) 2,394 6.2 -30.6°
Sets 20:46:40 0° 348° (NNW) 3,342 7.2 -30.8°
